This is the latest recevied weather packets stored in our database for station/object WW3TRG. If no packets are shown the sender has not sent any weather packets the latest 10 day(s).
| Time | Temp. | Humidity | Pressure | Rain* | Wind** | Luminosity | Snow |
|---|---|---|---|---|---|---|---|
| 1777109871 | 9.44° C | 72% | 1012.9 hPa | 0 mm | - | 0 W/m² | - |
| 1777109568 | 9.44° C | 71% | 1012.8 hPa | 0 mm | - | 0 W/m² | - |
| 1777109264 | 9.44° C | 71% | 1012.7 hPa | 0 mm | - | 0 W/m² | - |
| 1777108959 | 9.44° C | 71% | 1012.8 hPa | 0 mm | - | 0 W/m² | - |
| 1777108655 | 9.44° C | 70% | 1012.5 hPa | 0 mm | - | 0 W/m² | - |
| 1777108352 | 9.44° C | 69% | 1012.3 hPa | 0 mm | - | 0 W/m² | - |
| 1777108047 | 9.44° C | 69% | 1012 hPa | 0 mm | - | 0 W/m² | - |
| 1777107742 | 9.44° C | 68% | 1012.3 hPa | 0 mm | - | 0 W/m² | - |
| 1777107436 | 9.44° C | 68% | 1012.1 hPa | 0 mm | - | 0 W/m² | - |
| 1777107135 | 9.44° C | 68% | 1011.8 hPa | 0 mm | - | 0 W/m² | - |
| 1777106829 | 9.44° C | 68% | 1012.1 hPa | 0 mm | - | 0 W/m² | - |
| 1777106525 | 9.44° C | 68% | 1012.1 hPa | 0 mm | - | 0 W/m² | - |
| 1777106222 | 9.44° C | 68% | 1012.3 hPa | 0 mm | - | 0 W/m² | - |
| 1777105918 | 9.44° C | 66% | 1012.2 hPa | 0 mm | - | 0 W/m² | - |
| 1777105615 | 9.44° C | 69% | 1012 hPa | 0 mm | - | 0 W/m² | - |
| 1777105310 | 9.44° C | 67% | 1012.1 hPa | 0 mm | - | 0 W/m² | - |
| 1777105006 | 9.44° C | 68% | 1012 hPa | 0 mm | - | 0 W/m² | - |
| 1777104704 | 8.89° C | 71% | 1012.1 hPa | 0 mm | - | 0 W/m² | - |
| 1777104400 | 9.44° C | 70% | 1012.2 hPa | 0 mm | - | 0 W/m² | - |
| 1777104095 | 9.44° C | 66% | 1012.2 hPa | 0 mm | - | 0 W/m² | - |
| 1777103792 | 9.44° C | 67% | 1012.3 hPa | 0 mm | - | 0 W/m² | - |
| 1777103489 | 10° C | 67% | 1012.1 hPa | 0 mm | - | 0 W/m² | - |
| 1777103187 | 9.44° C | 69% | 1012.1 hPa | 0 mm | - | 0 W/m² | - |
* Rain latest hour (hover to see other rain measurements)
** Current wind speed in m/s (hover to see current wind gust speed)